Tracking 30061 objects as of 8-Dec-2024
HD Live streaming from Space Station
objects crossing your sky now

STARLINK-5635

Track STARLINK-5635 now!
10-day predictions
STARLINK-5635 is classified as:


NORAD ID: 55367
Int'l Code: 2023-013AN
Perigee: 565.3 km
Apogee: 567.1 km
Inclination: 43.0 °
Period: 95.8 minutes
Semi major axis: 6937 km
RCS: Unknown
Launch date: January 26, 2023
Source: United States (US)
Launch site: AIR FORCE EASTERN TEST RANGE (AFETR)
Your satellite tracking list
Your tracking list is empty




NASA's NSSDC Master Catalog

Two Line Element Set (TLE):
1 55367U 23013AN  24343.09865100  .00002224  00000-0  17960-3 0  9996
2 55367  43.0012 248.5256 0001254 242.8194 117.2520 15.02542976103601
Source of the keplerian elements: AFSPC